{"data":{"norad_id":48458,"epoch":"2026-09-19T23:36:13.752000Z","epoch_age_seconds":81811,"freshness":"FRESH","line1":"1 48458U 21040AG  26262.98349250  .00001816  00000+0  70254-4 0  9991","line2":"2 48458  53.1611 354.5573 0000751  87.9122 272.1965 15.31706066297164","mean_motion":15.31706066,"eccentricity":7.51e-5,"inclination_deg":53.1611,"raan_deg":354.5573,"arg_perigee_deg":87.9122,"mean_anomaly_deg":272.1965,"bstar":7.0254e-5,"rev_number":29716,"period_min":94.012815641614,"perigee_km":470.20756355062,"apogee_km":471.23626215933,"semimajor_km":6848.858912855,"source":"CELESTRAK","updated_at":"2026-09-20T09:00:39.127441Z"}}